RH
96 96 97 97 98 96 97 96 96 96 97 98 98 95 92 87 90 87 97 95 77 94 90 84 74 75 76 76 83 79 75 80 86 88 91 79 90 75 67 58 80 75 91 92 89 80 70 45 49 61 56 55 55 65
96 97 98 98 97 95 95 97 99 99 97 98 99 97 90 83 88 89 93 97 88 87 88 85 81 81 80 62 79 84 69 75 75 86 90 93 99 98 82 75 71 70 67 72 63 66 51 49 57 52 56 53 53 65
98 97 97 96 96 96 98 99 98 97 98 98 99 99 89 86 88 89 96 94 84 95 85 82 84 77 75 81 72 77 84 74 72 74 88 92 91 88 94 85 76 68 61 71 67 49 54 54 50 53 52 55 55 61
97 96 95 96 98 98 98 98 98 98 98 99 99 99 96 90 92 86 90 97 80 90 100 88 77 81 76 82 77 73 78 84 84 82 97 98 96 78 88 74 79 67 67 68 71 61 58 52 58 56 56 62 63 66
95 96 97 98 98 98 98 98 99 99 99 98 94 94 93 92 90 89 97 98 94 64 97 98 82 79 81 83 79 75 74 80 88 95 100 95 90 91 96 92 87 69 65 76 73 51 53 52 48 60 67 68 69 74
96 98 99 98 98 98 99 98 99 99 99 99 99 94 89 89 89 82 73 89 94 89 92 99 89 88 86 85 88 91 88 87 84 87 99 89 86 87 100 89 66 61 62 56 56 56 56 58 60 66 71 74 76 69
98 98 98 98 98 98 99 99 98 98 95 94 92 92 94 94 91 72 67 88 94 90 95 98 98 86 91 90 95 95 94 94 88 97 99 98 96 83 99 91 82 77 74 72 67 70 72 71 77 74 58 51 55 55
98 98 98 98 98 98 99 99 99 96 95 94 93 93 92 94 94 94 97 95 95 80 88 95 98 97 89 98 99 95 99 95 97 98 98 99 97 99 99 87 82 78 80 78 83 79 82 61 49 49 55 67 83 87
98 99 99 99 98 98 99 99 98 94 93 91 91 92 90 96 99 96 94 93 91 80 95 94 90 93 90 99 99 99 96 100 97 100 100 94 100 100 89 87 91 92 95 92 70 60 69 77 79 81 81 84 94 99
98 98 98 98 99 99 99 99 96 93 91 88 88 88 99 100 91 86 85 90 95 98 98 100 94 100 90 100 100 100 100 100 99 99 96 100 100 81 86 89 93 94 90 82 84 91 96 97 96 98 99 98 96 93
98 98 98 98 99 99 97 94 94 88 87 95 99 100 98 89 88 94 98 97 96 96 99 99 98 98 96 98 100 100 100 100 96 92 99 98 98 83 90 94 86 85 87 90 92 94 96 98 98 99 98 96 93 88
95 96 98 98 97 95 94 95 91 95 99 93 96 93 90 90 95 96 100 100 99 98 100 100 100 98 100 95 98 99 100 100 94 94 100 99 95 98 97 98 97 95 94 93 94 94 92 89 86 86 82 73 72 83
93 94 94 95 95 92 90 89 89 89 89 90 90 90 92 98 98 89 100 100 100 100 100 100 100 100 99 97 100 100 100 100 98 100 98 99 99 99 99 99 97 96 93 86 79 77 74 70 70 78 86 87 90 83
90 91 93 93 95 95 92 88 86 86 90 96 96 99 96 100 100 100 99 100 100 100 100 100 100 100 100 100 100 100 100 99 99 97 96 99 100 98 92 95 92 86 88 76 69 68 74 78 79 88 92 92 94 85
90 87 85 93 91 92 91 90 87 90 94 99 94 99 98 100 99 100 100 100 100 100 100 100 100 97 100 98 97 97 97 96 92 93 95 99 98 88 95 93 92 95 95 84 74 80 90 88 84 80 85 84 84 91
87 86 92 93 89 84 83 84 89 92 97 99 99 99 99 99 100 100 100 100 99 100 100 98 98 96 98 97 96 95 93 94 94 99 99 98 99 99 99 99 97 94 83 80 78 74 79 88 91 84 85 90 94 95
86 98 90 90 87 82 81 86 91 88 94 96 99 100 100 100 100 100 100 100 99 100 100 98 96 95 95 96 96 95 94 94 98 98 98 98 98 98 98 98 91 82 75 79 80 85 87 88 93 93 95 88 86 86
99 98 88 85 82 80 91 89 88 91 98 99 99 99 99 100 100 100 100 98 98 99 96 95 91 96 97 98 98 96 97 99 95 95 95 95 87 90 81 73 76 80 86 91 95 92 91 94 90 86 80 75 77 77
93 92 87 85 82 89 91 92 88 94 99 99 99 99 99 99 99 99 100 100 98 94 94 91 93 96 97 93 95 98 96 97 95 88 84 83 83 84 86 87 88 93 93 87 82 81 80 77 78 73 72 73 79 77
82 84 86 84 78 89 86 93 89 90 97 99 98 98 98 98 99 99 99 98 97 93 91 94 92 91 90 91 91 96 95 90 86 88 93 94 89 86 87 86 87 82 77 78 78 79 74 73 70 72 76 78 85 85
89 94 86 88 93 91 97 93 89 95 94 96 98 94 98 96 96 97 96 92 93 98 97 97 98 96 94 96 92 90 90 83 83 86 91 95 89 83 83 84 82 77 82 87 86 83 85 83 78 76 87 90 89 89
95 86 95 87 90 90 96 96 96 96 95 98 95 93 96 97 98 98 96 93 90 96 92 95 93 91 90 93 89 87 89 90 85 86 86 87 91 88 84 81 80 88 84 87 85 92 86 79 81 83 90 91 88 86
88 89 94 89 89 92 97 92 93 85 85 99 93 96 97 97 98 91 96 91 96 92 94 94 93 90 89 83 76 76 75 78 87 92 92 88 84 85 85 82 81 87 85 78 76 80 86 91 85 91 89 89 89 91
82 89 89 93 98 100 95 100 93 97 97 96 98 99 97 99 94 95 94 95 95 93 94 94 93 92 90 80 82 84 83 77 82 86 86 85 87 86 82 83 84 84 79 77 81 88 88 93 96 90 92 94 94 95
86 94 90 99 96 98 100 100 98 93 100 98 98 99 99 95 97 94 94 95 93 95 95 96 94 92 90 91 89 87 87 82 84 86 84 79 84 80 75 70 81 81 83 92 94 96 95 94 94 94 93 95 95 95
100 97 94 98 98 98 99 99 100 100 100 99 97 96 97 97 96 96 92 95 96 95 97 97 95 90 87 84 86 87 85 86 80 84 80 72 75 83 85 86 86 81 86 97 100 99 97 94 95 96 96 93 95 96
97 97 94 89 90 92 97 96 94 93 100 98 96 97 97 97 97 93 92 92 93 94 93 93 92 90 89 85 83 89 89 88 87 82 79 76 77 77 85 91 92 85 88 94 99 100 100 100 100 97 97 94 94 95
96 97 99 98 99 98 99 98 97 97 98 96 96 96 95 95 94 93 92 93 94 91 90 89 89 86 86 86 90 92 92 91 93 91 90 88 89 93 93 92 92 100 97 98 99 99 98 100 99 97 97 98 97 96
99 99 97 99 98 97 99 99 100 98 97 97 97 96 93 88 93 92 90 92 93 92 92 92 95 94 93 90 94 94 94 93 84 93 96 96 96 91 92 96 96 96 99 99 100 99 99 97 98 97 93 96 95 94
97 98 98 99 98 98 94 98 98 98 96 95 90 87 87 94 94 93 93 93 94 97 97 97 97 97 99 97 100 97 99 100 98 96 98 100 97 94 98 100 100 99 100 99 97 95 100 98 96 93 94 94 95 95
98 97 97 98 98 98 100 100 98 98 98 96 97 96 94 96 96 96 94 96 96 97 97 100 99 100 99 100 100 99 98 96 100 100 100 100 100 99 100 100 100 100 100 100 98 100 100 98 99 98 96 96 96 97
96 99 100 97 97 97 97 99 100 98 97 99 99 97 98 96 100 97 98 95 94 94 100 100 100 100 100 100 100 100 100 100 100 100 100 100 100 100 100 100 100 100 100 100 99 98 100 100 99 99 99 98 98 97
99 100 99 100 100 99 100 97 98 99 98 99 99 99 99 97 99 97 96 97 93 96 98 100 100 100 100 100 98 98 99 99 100 100 100 100 100 100 100 100 100 100 100 100 100 100 98 100 98 99 99 99 97 96
Wind_Speed
26 26 24 21 20 19 17 15 13 13 12 12 13 16 20 22 14 3 2 1 4 4 1 1 2 6 4 3 6 6 5 2 3 4 3 4 3 4 2 3 5 6 6 3 3 1 7 5 3 5 5 2 2 5
26 24 23 20 18 18 16 14 14 13 12 11 12 16 19 22 15 4 4 1 2 5 3 1 4 3 1 5 8 1 3 5 5 6 1 4 3 1 2 3 1 3 5 4 9 6 3 6 5 2 2 3 2 3
24 24 21 19 18 16 15 15 14 13 11 9 12 15 19 17 11 6 4 2 3 5 3 4 3 5 7 3 1 7 2 5 3 2 5 3 4 4 4 5 2 4 4 3 1 3 8 10 7 7 5 9 5 6
24 22 21 19 17 17 16 15 13 12 13 10 13 15 16 15 9 7 5 1 2 5 7 3 3 5 8 5 3 3 8 7 7 2 4 3 4 4 3 2 3 3 6 4 5 9 5 8 8 11 9 6 7 3
22 21 20 19 19 17 16 14 13 13 14 13 16 17 17 16 16 16 4 1 1 5 6 1 2 5 9 5 11 10 9 6 3 3 3 3 3 5 1 1 4 6 6 5 6 5 3 5 4 3 3 4 4 5
21 21 20 20 20 19 15 15 13 14 13 11 12 15 15 14 9 4 3 3 6 2 7 3 3 5 6 7 12 9 4 4 3 3 2 2 1 3 4 3 4 2 4 3 5 2 4 7 7 4 5 3 3 7
20 20 20 19 20 17 15 14 15 16 12 10 12 14 12 12 6 6 4 3 6 1 6 4 3 4 4 4 4 4 5 3 3 3 3 3 2 2 3 4 8 10 10 10 5 3 4 6 5 8 10 13 17 17
19 19 19 19 19 15 16 15 13 14 13 14 15 21 23 25 16 6 4 7 5 7 5 5 2 3 6 3 3 4 2 2 5 3 2 2 2 1 2 7 12 13 14 2 11 4 3 8 11 13 13 15 17 14
17 19 17 18 17 12 15 14 13 10 9 7 4 5 5 8 4 2 10 7 4 6 5 3 5 4 3 2 1 3 2 4 2 2 2 2 1 2 4 8 10 12 7 10 8 12 14 15 14 15 17 16 16 11
17 16 13 15 15 12 13 13 10 10 8 5 6 6 4 2 7 7 7 7 8 5 5 4 1 2 2 1 2 2 2 2 2 0 0 2 3 5 5 5 5 8 10 6 3 9 11 11 13 13 13 10 8 4
20 17 15 15 13 10 9 14 13 9 9 5 4 3 2 7 3 5 5 5 3 4 3 1 1 3 3 3 2 1 2 0 3 1 2 1 3 2 4 6 7 9 12 14 16 15 13 10 9 7 5 4 4 5
25 22 18 15 13 12 16 14 9 6 2 2 5 4 3 5 5 7 2 2 4 2 1 2 1 2 1 1 4 0 3 1 3 2 2 3 2 4 5 6 7 8 11 14 13 13 10 10 7 5 2 0 0 1
24 24 22 18 16 16 14 14 14 12 3 3 6 6 5 4 7 4 5 1 2 2 1 1 2 1 1 3 3 2 3 2 2 2 2 2 3 3 5 4 6 5 7 6 6 5 4 3 3 3 3 2 1 2
21 22 22 20 15 14 13 13 12 4 6 6 4 5 3 2 3 2 2 2 1 1 2 2 3 2 1 4 1 3 1 1 3 3 3 3 4 4 4 2 6 5 3 3 4 4 4 4 4 3 3 2 2 4
14 18 18 21 12 10 12 12 13 5 5 5 4 4 4 2 3 2 1 2 2 1 1 3 3 2 2 3 2 3 2 1 2 3 3 4 7 4 5 4 4 3 2 2 2 3 4 4 4 4 5 5 6 5
7 9 12 20 11 10 6 6 6 4 5 4 5 3 1 3 2 2 2 2 1 1 0 3 3 3 2 2 2 2 4 3 3 2 4 5 6 5 4 4 3 1 2 3 4 4 4 5 5 4 4 6 6 4
12 4 18 15 8 6 10 5 4 6 4 4 3 2 2 4 3 2 1 2 2 2 2 2 3 2 2 2 2 1 3 3 5 5 4 5 6 7 4 2 1 3 4 5 5 7 7 6 4 8 11 12 12 10
5 6 16 16 5 5 5 6 5 5 6 3 3 2 2 3 2 3 2 3 2 2 1 2 3 2 3 4 2 2 2 2 3 4 3 3 3 4 3 4 5 5 8 8 7 8 8 9 10 8 10 11 10 9
5 12 17 17 6 5 5 6 4 5 3 1 2 2 2 2 2 2 2 3 2 1 3 2 4 2 2 2 2 3 3 3 3 3 3 4 5 6 7 8 9 10 9 9 8 6 6 8 7 6 7 8 8 8
11 18 21 15 7 5 6 4 2 4 3 1 2 3 2 2 2 1 2 4 2 2 4 3 1 1 1 1 1 1 2 3 5 5 4 6 6 9 10 8 7 8 7 7 7 7 5 5 6 6 7 8 8 9
11 10 13 7 5 7 5 3 4 2 2 3 1 2 2 1 2 3 3 3 4 2 2 1 1 2 5 5 4 3 5 2 2 2 4 6 5 7 7 6 7 6 6 5 5 5 6 5 6 7 7 7 8 8
5 12 4 7 6 5 5 4 2 1 3 1 2 2 2 2 2 2 3 2 2 1 2 2 1 2 5 7 7 9 8 9 9 8 11 8 5 5 6 5 5 5 5 5 5 5 5 6 6 7 7 8 8 9
6 6 5 7 7 7 2 4 5 4 2 1 1 3 1 1 1 1 2 2 2 2 2 2 5 8 10 9 10 12 10 10 8 8 7 7 8 7 6 5 4 5 4 5 5 5 5 6 6 7 7 8 8 8
6 6 6 6 6 3 4 5 3 3 4 3 2 1 1 0 1 2 1 1 2 2 2 5 5 6 6 8 8 7 7 7 7 7 6 6 6 6 5 5 5 5 5 4 4 4 5 6 7 7 7 7 7 7
9 8 6 5 4 6 6 5 4 3 2 1 2 2 1 2 2 2 1 2 4 5 5 4 4 5 6 6 5 5 7 4 5 7 6 5 5 4 4 4 4 5 5 5 6 7 6 6 6 7 8 7 9 9
8 5 4 2 2 4 1 2 0 2 1 2 2 1 1 2 3 2 3 4 3 5 5 4 4 5 7 6 5 3 4 4 4 5 4 5 5 4 3 3 4 3 5 3 4 6 8 7 7 9 8 9 8 8
5 3 1 1 0 0 3 1 1 1 1 1 1 1 1 2 3 2 2 4 3 4 5 6 6 6 6 5 5 5 5 5 6 7 6 6 6 5 4 4 4 4 6 6 5 4 6 8 7 8 8 8 6 5
1 1 3 4 2 0 2 1 2 3 2 3 1 3 2 3 2 3 4 4 4 5 6 7 8 7 7 5 4 4 6 6 7 7 5 4 3 2 3 3 2 5 4 4 5 5 5 6 7 7 7 7 6 4
3 3 3 5 4 3 2 2 1 2 3 1 2 2 3 3 2 3 3 3 3 4 5 5 5 4 5 6 6 6 4 2 2 4 3 2 3 2 2 3 4 4 4 5 8 8 8 6 5 3 4 4 4 4
3 1 3 2 2 1 1 1 2 0 3 3 4 3 3 3 4 4 3 4 4 4 3 3 2 2 2 2 2 4 4 4 3 3 1 2 2 3 4 4 4 4 4 4 5 6 6 4 4 3 4 4 4 4
1 2 2 2 1 2 2 4 2 2 3 3 4 4 3 3 2 3 4 3 3 3 3 4 4 3 3 3 3 2 2 1 2 3 3 3 4 3 4 4 3 3 3 3 4 4 4 3 3 4 5 5 5 5
4 3 1 3 3 4 5 4 2 2 2 3 3 3 2 3 2 2 3 2 3 4 2 1 2 2 1 1 1 1 2 3 4 4 5 3 4 4 4 3 2 2 3 3 3 4 3 4 3 3 4 5 5 6
2 2 2 3 4 4 3 4 5 3 4 3 3 1 1 2 3 1 1 2 2 2 1 2 2 2 3 3 3 2 2 3 6 7 7 6 6 6 4 2 2 2 3 3 3 3 4 4 3 3 4 4 5 5
Wind_Direction
126 125 126 125 128 129 129 129 133 136 136 152 162 163 162 166 168 107 94 8 110 99 30 12 128 133 113 122 137 174 85 316 49 78 128 182 161 206 151 162 180 175 155 184 107 201 275 185 108 176 226 280 250 207
116 119 120 120 122 121 121 122 116 120 131 138 145 155 157 164 170 129 100 81 87 80 128 76 81 55 328 149 128 183 145 158 167 94 139 117 139 128 112 228 337 234 197 181 196 219 239 222 238 231 181 252 261 240
111 114 113 110 107 111 110 113 113 112 104 111 123 139 150 146 147 166 106 127 69 97 38 58 12 333 30 8 226 120 291 156 124 70 141 127 134 141 160 230 187 233 172 218 107 251 237 241 265 257 241 247 234 232
108 105 103 103 101 102 99 100 97 93 89 97 118 126 133 132 144 87 71 327 86 99 108 291 332 28 329 348 56 56 123 81 97 70 105 133 138 200 186 168 189 198 144 177 262 279 268 258 230 260 271 246 252 245
98 97 96 96 99 94 90 91 87 75 75 91 98 101 110 114 116 85 90 334 48 121 142 175 317 6 355 36 74 77 97 104 112 84 95 172 116 125 61 59 258 181 186 177 231 247 215 259 304 300 272 269 266 180
95 96 100 100 96 92 83 82 82 70 78 89 89 97 110 114 100 116 66 29 19 27 101 103 290 5 349 28 54 50 45 71 78 114 132 88 39 104 129 196 295 301 313 321 293 19 241 267 288 311 305 339 78 101
96 100 99 99 90 85 83 72 67 68 71 79 81 90 104 128 86 77 141 294 344 359 87 79 8 340 340 25 43 23 27 60 71 96 70 118 96 88 125 192 351 346 334 322 318 297 305 35 359 32 80 84 84 88
99 97 95 89 89 81 80 76 68 66 65 76 87 90 92 95 112 45 1 352 345 88 66 108 291 29 358 39 58 352 43 38 29 98 85 95 72 58 208 353 335 340 330 28 14 23 45 83 76 79 88 90 75 68
91 89 90 93 92 90 86 74 66 52 63 71 95 148 66 37 53 278 325 321 41 88 109 82 131 201 357 53 47 33 26 68 297 99 85 143 115 73 347 329 347 343 326 296 44 66 75 77 78 79 80 70 79 87
76 79 81 83 73 64 81 71 42 23 25 35 44 43 39 335 316 313 3 28 20 357 37 81 190 104 19 19 42 68 1 68 167 50 354 78 79 121 13 6 356 6 14 17 107 67 66 70 73 69 72 78 89 102
68 70 69 70 67 59 53 55 26 10 33 41 46 62 243 317 53 35 54 56 332 40 22 92 121 125 349 122 126 21 133 24 167 166 160 108 98 48 17 46 48 57 68 73 82 82 79 81 88 95 95 116 169 209
63 64 69 75 70 59 48 36 23 52 36 79 117 94 42 36 50 73 36 355 46 157 356 105 76 76 84 109 103 23 110 112 175 126 128 133 124 64 73 64 64 64 84 90 99 109 121 130 134 128 116 224 26 10
57 57 52 49 52 55 54 53 63 102 131 43 47 53 48 336 60 120 172 191 145 174 186 134 72 71 64 52 79 108 141 158 105 162 140 71 108 107 103 86 87 97 97 90 91 84 80 77 57 46 77 54 324 355
59 55 50 44 39 44 42 39 35 69 68 60 49 63 60 83 68 58 92 88 98 95 94 87 73 68 359 56 48 115 82 126 172 188 162 132 136 124 129 124 126 121 58 57 47 48 54 40 44 45 46 10 9 7
64 55 48 22 33 54 54 34 28 45 58 56 25 64 57 103 56 50 52 91 35 91 39 85 65 64 36 95 36 111 91 145 209 188 136 133 141 143 136 133 105 79 55 53 23 31 20 27 33 22 19 15 18 357
46 42 17 357 11 40 81 41 35 62 55 54 46 82 49 78 58 48 41 69 19 74 11 50 80 67 59 86 83 220 140 219 153 129 119 134 157 173 181 200 208 317 7 35 45 38 50 38 27 17 21 34 2 338
57 43 335 349 3 45 48 77 67 56 82 49 39 21 56 66 68 63 60 43 344 51 75 92 91 111 78 108 152 163 186 173 140 132 149 163 165 173 183 187 301 77 65 54 64 53 49 45 41 32 18 3 352 350
51 311 351 3 21 40 36 35 72 70 65 26 61 11 35 30 70 52 46 11 37 74 86 108 126 121 150 147 233 194 137 87 113 130 134 140 151 152 142 117 86 80 82 71 62 55 43 36 34 20 5 353 345 344
31 14 5 9 49 86 65 29 44 82 60 53 54 27 53 65 52 60 56 34 42 70 105 54 81 138 209 219 162 151 156 150 134 107 78 65 84 93 90 84 84 78 72 60 50 45 42 41 31 12 356 347 342 339
9 20 0 5 31 71 62 15 44 75 68 57 44 38 60 48 331 8 72 32 30 54 42 46 163 237 183 337 337 175 157 136 126 114 86 67 66 79 71 76 74 76 70 62 61 41 31 29 20 5 359 347 340 334
18 348 356 16 38 56 79 5 59 59 97 70 8 50 48 22 43 33 22 348 46 45 51 8 30 59 77 58 38 60 58 68 85 126 135 126 90 82 74 65 71 66 64 54 49 32 24 17 0 354 346 339 333 323
351 346 19 12 61 42 66 15 52 75 61 65 44 42 56 42 24 33 322 36 67 43 13 346 33 109 70 55 54 51 70 82 79 78 75 89 102 84 71 57 71 72 63 42 27 20 5 1 353 345 339 334 330 327
6 28 33 24 66 46 314 352 62 10 83 56 52 40 44 91 9 340 64 34 79 34 10 51 54 85 95 86 76 63 60 75 74 72 82 89 93 93 91 78 60 58 51 35 11 5 354 344 345 341 339 336 335 334
5 50 42 37 51 53 360 18 19 30 31 43 65 20 330 113 7 55 69 30 58 7 31 107 110 105 91 70 64 59 54 76 86 68 53 98 100 88 84 83 76 63 40 6 358 353 348 342 339 343 335 333 334 335
66 356 70 20 25 47 30 11 357 35 2 302 50 323 279 37 71 57 31 52 15 13 7 38 72 81 99 97 85 66 36 54 92 91 47 62 90 89 74 63 66 59 22 6 2 346 337 332 336 333 334 338 336 333
69 354 54 45 355 54 206 58 310 225 179 332 250 321 7 102 81 84 48 358 18 8 2 13 72 83 67 64 87 62 30 8 92 91 71 62 65 80 66 38 8 20 17 15 340 322 324 327 329 332 329 334 330 335
62 32 17 233 18 140 20 331 222 265 326 213 267 22 72 69 75 70 74 16 28 17 22 19 41 70 87 80 64 51 47 48 70 95 103 90 80 74 76 50 10 334 333 338 328 310 310 316 316 315 316 321 329 345
100 104 67 280 26 132 121 54 55 28 14 353 40 38 60 33 82 31 19 32 54 61 62 55 55 66 71 63 59 84 80 79 81 84 92 88 74 63 48 27 346 324 323 321 311 306 299 293 297 306 315 319 328 344
29 323 66 6 4 25 46 73 3 8 348 328 94 93 96 67 20 345 6 10 37 74 78 78 64 71 73 66 54 46 42 47 62 51 37 341 350 348 10 350 335 335 338 326 317 318 312 310 337 331 335 328 331 342
317 32 72 54 80 44 356 179 261 260 46 66 93 97 81 64 14 354 28 40 56 67 59 54 21 55 81 70 52 28 35 39 52 80 30 304 267 298 321 320 320 323 331 328 332 329 339 7 350 12 8 9 9 359
303 34 59 84 207 257 280 299 309 103 88 73 37 81 99 123 71 32 43 33 49 41 59 43 47 39 73 60 67 51 11 352 340 302 270 286 290 276 294 301 306 315 318 324 336 340 334 343 357 349 356 358 355 353
14 49 85 350 302 311 8 44 356 25 19 91 50 74 44 63 50 357 2 24 49 50 32 94 63 352 253 248 252 256 242 311 327 322 312 293 290 292 296 303 311 305 309 322 334 341 339 338 334 344 340 340 339 343
15 37 32 31 344 348 341 59 20 4 34 56 29 84 92 111 131 262 25 35 75 135 249 266 266 275 266 248 254 271 267 286 301 295 290 271 273 285 291 296 296 301 313 319 322 327 333 325 317 323 324 326 330 334